When you browse on this site, cookies collect data to enhance your experience and personalize the content and advertising you see.
Visit our Privacy Policy to learn more. By continuing to use the site, you agree to this use of cookies and data.
  • In Hungary
  • List of Countries
  • For 7 days
  • Water Temperature
  • Satellite Maps
  • Weather Map
  • News
  • Weather Widgets
  • user-avatar
    Login

    Hourly Weather Soro

    Today, 23 January, Wednesday

    Time Temperature Precipitation Wind Pressure Humidity
    00:00 -5°C° 0 mm 6 mps 750 mmHg 77%
    01:00 -5°C° 0 mm 5 mps 750 mmHg 80%
    02:00 -5°C° 0 mm 5 mps 749 mmHg 79%
    03:00 -5°C° 0 mm 5 mps 749 mmHg 78%
    04:00 -5°C° 0 mm 5 mps 749 mmHg 77%
    05:00 -5°C° 0 mm 5 mps 749 mmHg 75%
    06:00 -5°C° 0 mm 5 mps 749 mmHg 73%
    07:00 -5°C° 0 mm 5 mps 749 mmHg 71%
    08:00 -5°C° 0 mm 5 mps 749 mmHg 69%
    09:00 -5°C° 0 mm 5 mps 750 mmHg 66%
    10:00 -5°C° 0 mm 5 mps 750 mmHg 64%
    11:00 -4°C° 0 mm 5 mps 750 mmHg 62%
    12:00 -4°C° 0 mm 5 mps 750 mmHg 61%
    13:00 -4°C° 0 mm 5 mps 751 mmHg 60%
    14:00 -4°C° 0 mm 5 mps 751 mmHg 63%
    15:00 -4°C° 0 mm 5 mps 751 mmHg 67%
    16:00 -3°C° 0 mm 4 mps 751 mmHg 70%
    17:00 -4°C° 0 mm 4 mps 752 mmHg 73%
    18:00 -4°C° 0 mm 4 mps 752 mmHg 76%
    19:00 -4°C° 0 mm 4 mps 752 mmHg 79%
    20:00 -4°C° 0 mm 4 mps 752 mmHg 79%
    21:00 -4°C° 0 mm 4 mps 753 mmHg 79%
    22:00 -4°C° 0 mm 4 mps 753 mmHg 79%
    23:00 -4°C° 0 mm 3 mps 753 mmHg 79%

    Tomorrow, 24 January, Thursday

    Time Temperature Precipitation Wind Pressure Humidity
    00:00 -4°C° 0 mm 3 mps 753 mmHg 79%
    01:00 -5°C° 0 mm 3 mps 754 mmHg 79%
    02:00 -5°C° 0 mm 3 mps 754 mmHg 79%
    03:00 -5°C° 0 mm 3 mps 754 mmHg 79%
    04:00 -5°C° 0 mm 3 mps 754 mmHg 78%
    05:00 -5°C° 0 mm 3 mps 754 mmHg 79%
    06:00 -5°C° 0 mm 3 mps 754 mmHg 80%
    07:00 -4°C° 0 mm 2 mps 754 mmHg 80%
    08:00 -5°C° 0 mm 3 mps 755 mmHg 79%
    09:00 -4°C° 0 mm 3 mps 755 mmHg 78%
    10:00 -4°C° 0 mm 3 mps 756 mmHg 77%
    11:00 -2°C° 0 mm 3 mps 756 mmHg 74%
    12:00 -3°C° 0 mm 4 mps 756 mmHg 71%
    13:00 -2°C° 0 mm 4 mps 756 mmHg 68%
    14:00 -2°C° 0 mm 4 mps 756 mmHg 69%
    15:00 -3°C° 0 mm 4 mps 756 mmHg 71%
    16:00 -2°C° 0 mm 3 mps 756 mmHg 72%
    17:00 -2°C° 0 mm 3 mps 756 mmHg 74%
    18:00 -4°C° 0 mm 3 mps 756 mmHg 76%
    19:00 -4°C° 0 mm 3 mps 756 mmHg 78%
    20:00 -4°C° 0 mm 3 mps 757 mmHg 78%
    21:00 -4°C° 0 mm 3 mps 757 mmHg 79%
    22:00 -4°C° 0 mm 3 mps 757 mmHg 79%
    23:00 -4°C° 0 mm 3 mps 757 mmHg 79%

    Day after tomorrow, 25 January, Friday

    Time Temperature Precipitation Wind Pressure Humidity
    00:00 -4°C° 0 mm 3 mps 757 mmHg 78%
    01:00 -3°C° 0 mm 2 mps 757 mmHg 78%
    02:00 -3°C° 0 mm 2 mps 757 mmHg 78%
    03:00 -1°C° 0 mm 1 mps 757 mmHg 77%
    04:00 -1°C° 0 mm 1 mps 757 mmHg 77%
    05:00 -1°C° 0 mm 1 mps 758 mmHg 77%
    06:00 -3°C° 0 mm 2 mps 758 mmHg 77%
    07:00 -3°C° 0 mm 2 mps 758 mmHg 77%
    08:00 -2°C° 0 mm 2 mps 758 mmHg 76%
    09:00 -2°C° 0 mm 2 mps 758 mmHg 76%
    10:00 -2°C° 0 mm 2 mps 759 mmHg 75%
    11:00 -2°C° 0 mm 2 mps 759 mmHg 73%
    12:00 -2°C° 0 mm 2 mps 759 mmHg 70%
    13:00 -1°C° 0 mm 2 mps 759 mmHg 68%
    14:00 -2°C° 0 mm 2 mps 759 mmHg 69%
    15:00 0°C° 0 mm 1 mps 758 mmHg 71%
    16:00 0°C° 0 mm 1 mps 758 mmHg 72%
    17:00 0°C° 0 mm 1 mps 758 mmHg 73%
    18:00 0°C° 0 mm 1 mps 758 mmHg 74%
    19:00 0°C° 0 mm 1 mps 758 mmHg 75%
    20:00 -3°C° 0 mm 2 mps 758 mmHg 75%
    21:00 -3°C° 0 mm 2 mps 758 mmHg 75%
    22:00 -3°C° 0 mm 2 mps 758 mmHg 76%
    23:00 -4°C° 0 mm 3 mps 757 mmHg 77%

    26 January, Saturday

    Time Temperature Precipitation Wind Pressure Humidity
    00:00 -4°C° 0 mm 3 mps 756 mmHg 78%
    01:00 -4°C° 0 mm 4 mps 756 mmHg 80%
    02:00 -5°C° 0 mm 5 mps 755 mmHg 79%
    03:00 -5°C° 0 mm 5 mps 754 mmHg 78%
    04:00 -5°C° 0 mm 6 mps 752 mmHg 77%
    05:00 -7°C° 1 mm 7 mps 751 mmHg 83%
    06:00 -7°C° 1 mm 8 mps 749 mmHg 88%
    07:00 -8°C° 1 mm 9 mps 748 mmHg 94%
    08:00 -8°C° 1.5 mm 9 mps 747 mmHg 94%
    09:00 -7°C° 1.5 mm 10 mps 745 mmHg 94%
    10:00 -5°C° 1.5 mm 10 mps 744 mmHg 94%
    11:00 -4°C° 1.3 mm 9 mps 743 mmHg 95%
    12:00 -2°C° 1.3 mm 8 mps 741 mmHg 97%
    13:00 -1°C° 1.3 mm 7 mps 740 mmHg 99%
    14:00 0°C° 1.2 mm 8 mps 739 mmHg 98%
    15:00 0°C° 1.2 mm 8 mps 737 mmHg 98%
    16:00 +1°C° 1.2 mm 9 mps 736 mmHg 97%
    17:00 +1°C° 0.5 mm 8 mps 735 mmHg 97%
    18:00 +1°C° 0.5 mm 8 mps 734 mmHg 97%
    19:00 +2°C° 0.5 mm 7 mps 733 mmHg 97%
    20:00 0°C° 0.5 mm 7 mps 733 mmHg 96%
    21:00 +1°C° 0.5 mm 6 mps 733 mmHg 95%
    22:00 0°C° 0.5 mm 5 mps 732 mmHg 94%
    23:00 0°C° 0 mm 5 mps 732 mmHg 93%

    27 January, Sunday

    Time Temperature Precipitation Wind Pressure Humidity
    00:00 -1°C° 0 mm 6 mps 732 mmHg 91%
    01:00 -1°C° 0 mm 6 mps 732 mmHg 90%
    02:00 -2°C° 0.1 mm 7 mps 733 mmHg 90%
    03:00 -2°C° 0.1 mm 7 mps 733 mmHg 90%
    04:00 -2°C° 0.1 mm 7 mps 733 mmHg 89%
    05:00 -2°C° 0 mm 7 mps 733 mmHg 87%
    06:00 -3°C° 0 mm 7 mps 734 mmHg 84%
    07:00 -3°C° 0 mm 6 mps 734 mmHg 82%
    08:00 -3°C° 0 mm 7 mps 734 mmHg 82%
    09:00 -3°C° 0 mm 7 mps 735 mmHg 83%
    10:00 -3°C° 0 mm 7 mps 735 mmHg 84%
    11:00 -4°C° 0 mm 8 mps 735 mmHg 82%
    12:00 -4°C° 0 mm 8 mps 736 mmHg 81%
    13:00 -4°C° 0 mm 8 mps 736 mmHg 80%
    14:00 -4°C° 0 mm 8 mps 737 mmHg 80%
    15:00 -3°C° 0 mm 7 mps 737 mmHg 79%
    16:00 -4°C° 0 mm 7 mps 738 mmHg 79%
    17:00 -4°C° 0 mm 7 mps 738 mmHg 80%
    18:00 -4°C° 0 mm 7 mps 739 mmHg 82%
    19:00 -4°C° 0 mm 6 mps 739 mmHg 83%
    20:00 -4°C° 0 mm 6 mps 740 mmHg 84%
    21:00 -4°C° 0 mm 6 mps 741 mmHg 84%
    22:00 -4°C° 0 mm 6 mps 741 mmHg 84%
    23:00 -4°C° 0.1 mm 6 mps 742 mmHg 84%

    28 January, Monday

    Time Temperature Precipitation Wind Pressure Humidity
    00:00 -5°C° 0.1 mm 6 mps 742 mmHg 84%
    01:00 -5°C° 0.1 mm 5 mps 742 mmHg 84%
    02:00 -5°C° 0.1 mm 6 mps 743 mmHg 85%
    03:00 -5°C° 0.1 mm 6 mps 743 mmHg 85%
    04:00 -5°C° 0.1 mm 6 mps 743 mmHg 86%
    05:00 -5°C° 0.1 mm 6 mps 744 mmHg 86%
    06:00 -5°C° 0.1 mm 6 mps 744 mmHg 86%
    07:00 -5°C° 0.1 mm 6 mps 745 mmHg 86%
    08:00 -5°C° 0.2 mm 6 mps 746 mmHg 86%
    09:00 -4°C° 0.2 mm 6 mps 746 mmHg 86%
    10:00 -4°C° 0.2 mm 6 mps 747 mmHg 85%
    11:00 -4°C° 0.1 mm 6 mps 747 mmHg 84%
    12:00 -4°C° 0.1 mm 6 mps 748 mmHg 83%
    13:00 -4°C° 0.1 mm 6 mps 749 mmHg 82%
    14:00 -4°C° 0.1 mm 6 mps 749 mmHg 82%
    15:00 -5°C° 0.1 mm 6 mps 750 mmHg 82%
    16:00 -5°C° 0.1 mm 5 mps 750 mmHg 82%
    17:00 -6°C° 0 mm 5 mps 751 mmHg 82%
    18:00 -6°C° 0 mm 5 mps 751 mmHg 82%
    19:00 -7°C° 0 mm 5 mps 752 mmHg 83%
    20:00 -7°C° 0 mm 4 mps 752 mmHg 83%
    21:00 -7°C° 0 mm 4 mps 753 mmHg 83%
    22:00 -7°C° 0 mm 4 mps 753 mmHg 84%
    23:00 -5°C° 0.1 mm 4 mps 753 mmHg 84%
    Show more